Woodinville, Washington, United States (98072)
Lat: 47.75N, Lon: 122.16W
Wx Zone: WAZ505
Local Info
Past Weather Observations for Yesterday

NOTE: This archive is for the closest National Weather Service station to Woodinville. Information may differ from the station used for current weather conditions.

Click here for Long-term Archive

Time Weather Temperature Dewpoint Humidity Pressure Winds Precip Visibility
23:53
Clear
52°F / 11°C 37°F / 3°C 58% 30.09 in
(1019 mb)
Variable 3.5 mph
(Variable 6 kph)
- 10SM
22:53
Clear
55°F / 13°C 36°F / 2°C 47% 30.09 in
(1019 mb)
SSE 6.9 mph
(SSE 11 kph)
- 10SM
21:53
Clear
55°F / 13°C 37°F / 3°C 51% 30.12 in
(1020 mb)
SSE 6.9 mph
(SSE 11 kph)
- 10SM
20:53
Clear
57°F / 14°C 37°F / 3°C 48% 30.12 in
(1020 mb)
Variable 5.8 mph
(Variable 9 kph)
- 10SM
19:53
Clear
57°F / 14°C 39°F / 4°C 51% 30.12 in
(1020 mb)
Variable 4.6 mph
(Variable 7 kph)
- 10SM
18:53
Clear
57°F / 14°C 39°F / 4°C 51% 30.12 in
(1020 mb)
SSE 10.4 mph
(SSE 17 kph)
- 10SM
17:53
Clear
59°F / 15°C 39°F / 4°C 48% 30.12 in
(1020 mb)
SSE 6.9 mph
(SSE 11 kph)
- 10SM
16:53
Clear
61°F / 16°C 39°F / 4°C 45% 30.12 in
(1020 mb)
Variable 5.8 mph
(Variable 9 kph)
- 10SM
15:53
Clear
63°F / 17°C 37°F / 3°C 39% 30.12 in
(1020 mb)
SSE 8.1 mph
(SSE 13 kph)
- 10SM
14:53
Clear
63°F / 17°C 39°F / 4°C 42% 30.12 in
(1020 mb)
S 9.2 mph
(S 15 kph)
- 10SM
13:53
Clear
63°F / 17°C 39°F / 4°C 42% 30.12 in
(1020 mb)
SSE 9.2 mph
(SSE 15 kph)
- 10SM
12:53
Clear
61°F / 16°C 39°F / 4°C 45% 30.15 in
(1021 mb)
S 6.9 mph
(S 11 kph)
- 10SM
11:53
Clear
59°F / 15°C 39°F / 4°C 48% 30.18 in
(1022 mb)
S 9.2 mph
(S 15 kph)
- 10SM
10:53
Clear
55°F / 13°C 39°F / 4°C 55% 30.18 in
(1022 mb)
SSE 8.1 mph
(SSE 13 kph)
- 10SM
09:53
Clear
52°F / 11°C 41°F / 5°C 67% 30.21 in
(1023 mb)
S 6.9 mph
(S 11 kph)
- 10SM
08:53
Clear
46°F / 8°C 39°F / 4°C 76% 30.18 in
(1022 mb)
S 3.5 mph
(S 6 kph)
- 10SM
07:53
Clear
39°F / 4°C 36°F / 2°C 87% 30.18 in
(1022 mb)
SW 4.6 mph
(SW 7 kph)
- 10SM
06:53
Clear
43°F / 6°C 37°F / 3°C 81% 30.18 in
(1022 mb)
SE 3.5 mph
(SE 6 kph)
- 10SM
05:53
Clear
43°F / 6°C 37°F / 3°C 81% 30.18 in
(1022 mb)
Calm - 10SM
04:53
Partly Cloudy
Fog And Mist
43°F / 6°C 39°F / 4°C 87% 30.21 in
(1023 mb)
Calm - 3SM
04:49
Mostly Cloudy
Fog And Mist
43°F / 6°C 39°F / 4°C 87% 30.21 in
(1023 mb)
NNE 4.6 mph
(NNE 7 kph)
- 2SM
04:37
Obscured
Fog
43°F / 6°C 39°F / 4°C 87% 30.21 in
(1023 mb)
NNE 3.5 mph
(NNE 6 kph)
- 1/2SM
04:30
Obscured
Fog And Mist
43°F / 6°C 39°F / 4°C 87% 30.21 in
(1023 mb)
NNE 4.6 mph
(NNE 7 kph)
- 1SM
04:25
Partly Cloudy
Fog And Mist
43°F / 6°C 39°F / 4°C 87% 30.21 in
(1023 mb)
NE 5.8 mph
(NE 9 kph)
- 2SM
03:53
Partly Cloudy
Fog And Mist
43°F / 6°C 39°F / 4°C 87% 30.21 in
(1023 mb)
NNE 4.6 mph
(NNE 7 kph)
- 3SM
03:50
Partly Cloudy
Fog And Mist
43°F / 6°C 39°F / 4°C 87% 30.21 in
(1023 mb)
NNE 4.6 mph
(NNE 7 kph)
- 3SM
03:34
Partly Cloudy
Fog And Mist
43°F / 6°C 39°F / 4°C 87% 30.21 in
(1023 mb)
NNE 5.8 mph
(NNE 9 kph)
- 1 3/4SM
02:53
Clear
Fog And Mist
43°F / 6°C 41°F / 5°C 93% 30.24 in
(1024 mb)
NNE 5.8 mph
(NNE 9 kph)
- 3SM
02:33
Clear
Fog And Mist
43°F / 6°C 41°F / 5°C 93% 30.24 in
(1024 mb)
NNE 5.8 mph
(NNE 9 kph)
- 2SM
01:53
Partly Cloudy
Fog And Mist
43°F / 6°C 41°F / 5°C 93% 30.24 in
(1024 mb)
N 5.8 mph
(N 9 kph)
- 4SM
01:36
Partly Cloudy
Fog And Mist
43°F / 6°C 41°F / 5°C 93% 30.24 in
(1024 mb)
N 5.8 mph
(N 9 kph)
- 4SM
01:31
Mostly Cloudy
Fog And Mist
43°F / 6°C 39°F / 4°C 87% 30.24 in
(1024 mb)
N 5.8 mph
(N 9 kph)
- 2SM
01:27
Mostly Cloudy
Fog And Mist
43°F / 6°C 39°F / 4°C 87% 30.27 in
(1025 mb)
N 5.8 mph
(N 9 kph)
- 1 1/4SM
01:20
Obscured
Fog And Mist
43°F / 6°C 41°F / 5°C 93% 30.27 in
(1025 mb)
N 4.6 mph
(N 7 kph)
- 3/4SM
01:17
Obscured
Fog And Mist
43°F / 6°C 41°F / 5°C 93% 30.27 in
(1025 mb)
N 5.8 mph
(N 9 kph)
- 1SM
01:12
Partly Cloudy
Fog And Mist
43°F / 6°C 39°F / 4°C 87% 30.27 in
(1025 mb)
N 6.9 mph
(N 11 kph)
- 2 1/2SM
00:53
Clear
43°F / 6°C 41°F / 5°C 93% 30.27 in
(1025 mb)
N 4.6 mph
(N 7 kph)
- 8SM
Time Weather Temperature Dewpoint Humidity Pressure Winds Precip Visibility


Weather for websites

WeatherForYou.com, LLC is not responsible for any damages or problems caused by this service. Current weather conditions are obtained from the closest station including government and personal stations which may have varying degrees of accuracy. Weather forecasts are derived from the NOAA NDFD. Like all things, this site belongs to Jesus Christ... He just trusts us to maintain it. If you have any questions or comments email webmaster@weatherforyou.com

Copyright © 2016, WeatherForYou.com LLC. All rights reserved.